CAPE
1143 849 450 147 0 0 0 0 0 0 0 0 0 0 0 0 0 0 0 0 0 0 0 0 0 0 0 0 0 0 8 76 34 10 126 404 634 706 651 917 1153 1396 1413
567 326 74 0 0 0 0 0 0 0 0 0 0 0 0 0 0 0 0 0 0 0 0 0 0 0 0 0 0 0 0 2 10 13 18 14 259 513 707 721 465 513 972
97 17 0 0 0 0 0 0 0 0 0 0 0 0 0 0 0 0 0 0 0 1 2 4 4 4 7 7 7 4 5 14 37 25 4 59 27 68 154 275 569 556 514
5 0 0 0 0 0 0 0 0 0 0 0 2 6 2 0 0 0 0 0 0 0 9 9 4 3 3 4 12 20 19 14 21 20 16 12 18 28 96 91 83 246 297
0 0 0 0 0 0 0 0 0 1 0 0 0 0 0 4 0 0 0 0 0 0 16 20 13 0 0 0 0 0 2 5 10 13 13 15 17 13 46 160 153 115 253
0 0 0 0 0 0 0 0 0 0 0 0 0 4 0 0 0 0 0 0 0 0 0 2 4 4 0 0 0 0 0 0 3 6 14 4 58 80 32 26 98 123 194
0 0 0 0 0 0 0 0 0 0 0 0 0 6 5 0 0 0 0 0 0 0 0 2 4 2 1 1 0 0 3 0 0 1 0 7 1 6 0 0 74 278 358
0 0 0 0 0 0 0 0 0 0 0 0 0 0 16 17 0 0 0 0 0 0 0 1 4 7 2 1 3 4 8 18 2 6 12 6 2 1 4 5 1 1 181
0 0 0 0 0 0 0 0 0 0 0 0 0 0 0 3 0 0 0 0 0 0 0 1 0 10 0 0 2 5 1 7 0 0 0 0 0 0 0 0 16 79 148
0 0 0 0 0 0 0 0 0 0 0 0 0 0 0 0 0 0 0 0 0 0 0 0 0 0 0 0 0 1 1 12 1 0 0 0 0 0 0 1 1 40 44
0 0 0 0 0 0 0 0 0 0 0 0 0 0 0 0 0 0 0 0 0 0 0 0 3 0 0 0 0 0 0 0 0 0 0 0 0 0 0 0 0 0 20
0 0 0 0 0 0 0 0 0 0 0 0 0 0 0 0 0 0 0 0 0 0 0 0 0 0 0 0 0 0 0 0 0 0 0 0 0 0 0 0 0 0 0
0 0 0 0 0 0 0 0 0 0 0 0 0 0 0 0 0 0 0 0 0 0 0 0 0 0 0 0 0 0 0 0 0 0 0 0 0 0 0 0 0 0 0
0 0 0 0 0 0 0 0 0 0 0 0 0 0 0 0 0 0 0 0 0 0 0 0 0 0 0 0 0 0 0 0 0 0 0 0 0 0 0 0 0 0 0
0 0 0 0 0 0 0 0 0 0 0 0 0 0 0 0 0 0 0 0 0 0 0 0 0 0 0 0 0 0 0 0 0 0 0 0 0 0 0 0 0 0 0
0 0 0 0 0 0 0 0 0 0 0 0 0 0 0 0 0 0 0 0 0 0 0 0 0 0 0 0 0 0 0 0 0 0 0 0 0 0 0 0 0 0 0
0 0 0 0 0 0 0 0 0 0 0 0 0 0 0 0 0 0 0 0 0 0 0 0 0 0 0 0 0 0 0 0 0 0 0 0 0 0 0 0 0 0 0
0 0 0 0 0 0 0 0 0 0 0 0 0 0 0 0 0 0 0 0 0 0 0 0 0 0 0 0 0 0 0 0 0 0 0 0 0 0 0 0 0 0 0
0 0 0 0 0 0 0 0 0 0 0 0 0 0 0 0 0 0 0 0 0 0 0 0 0 0 0 0 0 0 0 0 0 0 0 0 0 0 0 0 0 0 0
0 0 0 0 0 0 0 0 0 0 0 0 0 0 0 0 0 0 0 0 0 0 0 0 0 0 0 0 0 0 0 0 0 0 0 0 0 0 0 0 0 0 0
0 0 0 0 5 0 0 0 0 0 0 0 0 0 0 0 0 0 0 0 0 0 0 0 0 0 0 0 0 0 0 0 0 0 0 0 0 0 0 0 0 0 0
0 1 0 0 0 9 0 2 5 4 14 7 0 1 0 0 0 0 0 0 0 0 0 0 0 0 0 0 0 0 0 0 0 0 0 0 0 0 0 0 0 0 0
1 2 23 39 43 15 17 28 28 36 35 22 26 29 34 30 24 23 6 20 34 14 1 0 0 0 0 0 0 0 0 0 0 0 0 0 0 0 0 0 0 0 0
0 1 2 3 2 2 2 2 6 7 6 7 25 40 57 43 41 27 27 21 22 13 6 0 0 0 0 0 0 0 0 0 0 0 0 0 0 0 0 0 0 0 0
0 0 0 0 1 2 3 3 2 3 3 2 2 3 2 2 2 1 1 30 64 81 37 5 0 0 0 0 0 0 0 0 0 0 0 0 0 0 0 0 0 0 0
0 0 0 0 0 0 0 1 1 3 1 0 2 1 0 1 0 0 0 1 0 0 1 1 24 27 20 0 0 0 0 0 0 0 0 0 0 0 0 1 5 0 0
CIN
-141 -158 -208 -280 0 0 0 0 0 0 0 0 0 0 0 0 0 0 0 0 0 0 0 0 0 0 0 0 0 0 0 -161 -99 -1 -113 -25 -1 -1 -9 -4 -3 -3 -4
-229 -262 -356 0 0 0 0 0 0 0 0 0 0 0 0 0 0 0 0 0 0 0 0 0 0 0 0 0 0 0 0 -1 -1 0 -22 -11 -59 -12 -1 -9 -16 -7 -1
-352 -287 0 0 0 0 0 0 0 0 0 0 0 0 0 0 0 0 0 0 0 0 0 0 0 0 0 0 0 -1 -1 -1 0 -23 -1 -164 -184 -171 -122 -61 -9 -10 -15
-414 0 0 0 0 0 0 0 0 0 0 0 -1 -1 0 0 0 0 0 0 0 0 0 0 0 0 0 0 -1 0 0 -1 -1 -1 -1 -2 -2 -203 -170 -160 -130 -57 -35
0 0 0 0 0 0 0 0 0 0 0 0 0 0 0 0 0 0 0 0 0 0 0 0 0 0 0 0 0 0 0 -1 -1 -1 -1 -1 -1 -1 -170 -135 -124 -104 -45
0 0 0 0 0 0 0 0 0 0 0 0 0 0 0 0 0 0 0 0 0 0 0 -1 -1 0 0 0 0 0 0 0 0 0 -1 0 -120 -186 -236 -241 -165 -121 -72
0 0 0 0 0 0 0 0 0 0 0 0 0 0 -1 0 0 0 0 0 0 0 0 0 -1 -1 0 0 0 0 0 0 0 0 -2 -1 -1 0 -1 -1 -107 -44 -14
0 0 0 0 0 0 0 0 0 0 0 0 0 0 0 -1 0 0 0 0 0 0 0 0 0 0 0 0 0 -1 0 0 0 0 0 0 0 0 0 -3 0 0 -41
0 0 0 0 0 0 0 0 0 0 0 0 0 0 0 0 0 0 0 0 0 0 0 0 0 0 -2 0 -9 -1 -1 -2 0 0 0 0 0 0 0 0 -6 -75 -40
0 0 0 0 0 0 0 0 0 0 0 0 0 0 0 0 0 0 0 0 0 0 0 0 0 0 0 0 0 -2 0 0 0 0 0 0 0 0 0 0 -1 -1 -1
0 0 0 0 0 0 0 0 0 0 0 0 0 0 0 0 0 0 0 0 0 0 0 0 0 0 0 0 0 0 0 0 0 0 0 0 0 0 0 0 0 0 0
0 0 0 0 0 0 0 0 0 0 0 0 0 0 0 0 0 0 0 0 0 0 0 0 0 0 0 0 0 0 0 0 0 0 0 0 0 0 0 0 0 0 0
0 0 0 0 0 0 0 0 0 0 0 0 0 0 0 0 0 0 0 0 0 0 0 0 0 0 0 0 0 0 0 0 0 0 0 0 0 0 0 0 0 0 0
0 0 0 0 0 0 0 0 0 0 0 0 0 0 0 0 0 0 0 0 0 0 0 0 0 0 0 0 0 0 0 0 0 0 0 0 0 0 0 0 0 0 0
0 0 0 0 0 0 0 0 0 0 0 0 0 0 0 0 0 0 0 0 0 0 0 0 0 0 0 0 0 0 0 0 0 0 0 0 0 0 0 0 0 0 0
0 0 0 0 0 0 0 0 0 0 0 0 0 0 0 0 0 0 0 0 0 0 0 0 0 0 0 0 0 0 0 0 0 0 0 0 0 0 0 0 0 0 0
0 0 0 0 0 0 0 0 0 0 0 0 0 0 0 0 0 0 0 0 0 0 0 0 0 0 0 0 0 0 0 0 0 0 0 0 0 0 0 0 0 0 0
0 0 0 0 0 0 0 0 0 0 0 0 0 0 0 0 0 0 0 0 0 0 0 0 0 0 0 0 0 0 0 0 0 0 0 0 0 0 0 0 0 0 0
0 0 0 0 0 0 0 0 0 0 0 0 0 0 0 0 0 0 0 0 0 0 0 0 0 0 0 0 0 0 0 0 0 0 0 0 0 0 0 0 0 0 0
0 0 0 0 0 0 0 0 0 0 0 0 0 0 0 0 0 0 0 0 0 0 0 0 0 0 0 0 0 0 0 0 0 0 0 0 0 0 0 0 0 0 0
0 0 0 0 -76 0 0 0 0 0 0 0 0 0 0 0 0 0 0 0 0 0 0 0 0 0 0 0 0 0 0 0 0 0 0 0 0 0 0 0 0 0 0
0 -28 -10 0 -34 -69 0 -21 -18 -69 -38 -38 -14 -16 0 0 0 0 0 0 0 0 0 0 0 0 0 0 0 0 0 0 0 0 0 0 0 0 0 0 0 0 0
-1 -9 -40 -40 -44 -50 -27 -57 -63 -55 -47 -56 -56 -33 -32 -50 -56 -51 -67 -65 -49 -57 -38 0 0 0 0 0 0 0 0 0 0 0 0 0 0 0 0 0 0 0 0
0 0 0 0 0 0 0 -11 -23 -92 -110 -81 -34 -26 -13 -14 -34 -42 -38 -53 -58 -72 -104 0 0 0 0 0 0 0 0 0 0 0 0 0 0 0 0 0 0 0 0
0 0 0 0 0 0 0 0 0 0 0 0 0 0 0 0 0 0 0 -11 -7 -7 -17 -40 -6 0 0 0 0 0 0 0 0 0 0 0 0 0 0 0 0 0 0
0 0 0 0 0 0 -1 0 0 0 0 0 0 0 0 0 0 0 0 0 0 0 0 -4 -10 -17 -52 -1 0 -12 0 0 0 0 0 0 0 0 0 -19 -28 0 0
Wind_Speed
11 11 13 14 16 18 18 19 19 19 18 17 16 16 17 18 19 20 20 20 20 20 19 19 18 18 18 18 17 16 15 17 21 26 23 24 25 26 26 25 22 22 20
10 11 13 14 17 19 20 20 20 20 19 18 16 15 17 19 21 22 23 22 21 21 20 20 19 19 19 18 18 18 18 20 24 26 26 26 24 25 26 26 26 25 23
9 10 12 14 16 19 20 21 20 19 19 18 17 17 18 20 21 22 22 22 21 21 21 21 21 21 20 20 20 20 19 19 20 23 25 24 25 25 25 25 25 26 24
9 9 10 13 15 16 18 19 19 18 18 18 19 19 20 20 21 22 22 22 22 22 21 20 21 21 22 22 22 22 21 22 22 23 25 25 24 25 25 25 26 25 27
8 8 9 11 14 15 18 19 19 19 19 18 15 15 17 20 21 21 22 22 23 22 21 21 20 22 23 23 24 24 23 23 23 24 25 25 25 25 25 25 26 27 25
5 7 10 11 12 14 17 18 20 18 19 20 20 19 17 17 18 20 21 22 23 23 22 22 23 22 25 25 24 24 23 24 24 24 25 25 24 25 26 27 26 25 24
4 6 8 10 12 15 17 18 19 17 19 21 21 21 17 17 17 19 20 22 23 24 24 24 23 24 25 25 24 23 23 21 21 22 23 24 24 25 25 27 26 25 24
4 6 8 11 14 15 17 18 17 17 18 21 20 19 18 18 19 20 20 21 22 24 24 23 23 25 25 25 25 24 23 22 22 21 21 22 23 24 25 25 25 24 22
3 6 9 11 15 17 19 19 18 18 20 23 22 20 20 20 19 20 21 22 24 25 23 22 23 24 25 25 23 24 24 21 20 21 21 22 22 24 25 25 25 25 23
4 6 10 12 15 17 18 16 17 18 20 21 22 22 22 21 19 20 22 23 25 25 23 22 21 22 24 23 23 23 23 22 22 22 20 20 21 23 24 23 23 24 23
6 10 13 14 16 18 17 17 19 20 21 20 21 21 22 21 18 19 21 23 25 25 24 22 20 23 24 23 21 21 22 22 21 20 20 20 20 22 22 23 23 23 22
8 11 14 15 17 17 17 18 19 19 20 19 20 21 21 21 19 19 20 23 23 24 24 23 23 24 23 23 20 20 20 19 20 20 20 20 20 21 22 21 21 21 20
11 14 15 15 17 17 18 19 20 19 20 19 19 21 22 21 22 20 21 22 22 22 22 23 25 24 21 20 19 19 19 20 20 19 19 19 20 21 21 19 19 18 18
13 15 15 17 19 19 19 19 19 20 19 19 19 20 22 22 22 22 22 20 20 20 20 21 22 22 20 19 18 17 19 20 20 19 18 18 19 20 20 20 19 20 18
13 15 17 20 20 21 20 20 17 19 18 20 19 20 21 22 21 20 20 20 19 19 21 20 21 21 21 20 18 18 19 19 19 18 17 17 18 18 19 19 19 19 19
15 16 18 19 20 21 21 21 16 16 16 16 14 17 19 18 19 18 17 17 18 18 20 21 22 21 21 21 20 19 19 19 18 17 15 15 16 16 17 17 17 19 20
15 15 16 18 19 19 19 20 22 19 17 17 14 11 10 13 16 15 15 16 17 18 20 21 21 20 20 20 19 19 19 19 18 16 15 15 16 16 16 16 17 18 20
14 14 15 17 18 18 17 18 19 19 23 22 17 15 15 17 14 13 14 16 19 19 20 20 21 20 20 19 18 18 18 18 17 16 14 14 15 15 16 17 18 20 23
14 16 17 17 18 17 18 18 19 18 19 21 22 20 18 19 17 16 14 15 17 19 19 19 19 20 19 19 17 17 17 17 16 15 14 13 14 15 16 17 19 21 23
18 18 19 20 20 18 18 17 17 16 15 16 17 19 22 21 20 18 18 19 19 21 21 19 19 18 18 17 17 16 16 16 15 13 13 14 14 14 16 19 21 23 26
23 21 20 20 21 23 23 21 18 17 17 18 20 20 19 20 22 20 19 18 18 19 20 20 20 20 19 17 16 15 15 16 15 14 13 13 14 14 15 19 22 24 27
24 24 24 24 28 26 24 22 19 21 21 21 21 22 20 21 23 23 23 23 23 22 22 22 22 20 19 17 16 15 15 15 15 15 13 13 14 14 16 20 23 26 27
25 26 27 27 27 26 26 25 25 25 24 24 26 26 24 24 28 29 28 28 28 26 24 22 24 25 21 18 15 14 15 14 14 14 13 13 14 16 18 20 24 27 28
28 28 28 28 29 29 29 29 28 27 27 28 29 29 29 29 29 30 30 29 29 28 28 27 25 24 23 22 18 16 16 15 15 12 12 13 15 16 17 19 22 24 28
29 29 29 30 30 30 30 29 30 29 29 31 32 32 32 34 35 35 35 35 33 32 31 30 29 29 28 24 21 21 19 15 15 13 12 12 13 17 21 21 21 22 25
30 30 30 30 30 31 31 31 32 32 33 33 33 34 37 37 37 37 37 37 39 39 38 36 35 38 37 34 30 33 29 19 16 17 15 13 13 17 21 23 19 19 22
Wind_Direction
83 54 66 41 14 7 8 5 1 357 2 4 1 1 358 355 353 350 347 344 341 343 345 344 344 344 342 342 342 343 342 335 324 311 321 322 320 319 319 324 328 326 327
68 61 54 27 12 8 4 3 359 355 352 355 1 4 359 351 343 338 336 338 341 342 343 344 345 347 347 348 346 342 338 330 317 315 317 318 321 322 323 321 320 321 324
71 62 55 29 23 13 3 358 358 0 357 356 358 354 350 345 342 340 341 342 342 342 342 343 343 345 347 346 345 343 341 337 331 324 323 326 322 324 325 326 324 321 322
85 63 34 33 37 40 33 24 17 10 4 354 346 340 339 342 343 343 343 342 339 339 341 346 347 347 345 343 342 340 339 334 331 327 324 324 326 327 326 326 325 325 319
90 69 52 47 37 33 26 23 25 16 5 3 2 355 348 338 337 340 343 343 341 339 341 343 346 344 343 341 337 335 336 335 332 329 326 326 327 329 329 328 325 325 327
84 48 35 32 31 25 17 18 13 17 14 4 352 345 347 347 350 346 343 341 341 339 340 340 340 341 335 335 335 334 335 331 328 328 327 328 330 330 331 328 327 327 328
45 15 16 17 11 9 7 7 8 12 8 2 355 352 350 347 347 344 343 341 338 337 338 338 338 337 334 332 332 334 337 339 336 333 332 332 334 335 335 334 332 328 328
11 9 5 360 356 357 355 356 0 1 2 357 355 350 348 344 341 340 340 341 340 341 340 340 339 336 335 331 328 330 333 337 338 340 341 339 340 339 338 335 336 336 334
358 1 354 349 348 347 346 347 350 351 349 348 350 347 340 338 338 335 335 336 335 335 339 340 338 338 337 335 336 331 332 337 341 341 343 344 345 343 340 338 337 336 337
351 352 348 348 345 342 342 344 348 349 349 348 346 343 337 332 336 334 330 331 330 330 336 339 344 341 338 339 339 337 334 337 337 338 345 349 348 346 345 346 344 342 341
356 346 346 343 340 339 341 342 341 341 343 345 343 341 340 337 337 334 331 330 328 326 329 334 341 340 339 341 345 344 341 339 343 346 348 350 350 348 348 348 348 346 344
354 347 342 339 338 340 341 340 341 341 340 342 341 339 339 338 337 336 333 330 330 328 327 330 333 332 337 340 346 346 347 350 349 349 348 351 349 345 346 350 353 354 355
340 338 339 339 339 340 338 339 338 339 338 339 338 334 332 334 332 334 332 330 331 331 331 329 327 330 337 343 347 347 349 349 349 347 348 351 348 345 347 353 356 356 355
338 338 339 337 335 334 335 336 336 335 333 336 336 334 329 328 330 334 336 337 337 337 337 334 333 335 339 341 346 348 347 346 345 345 349 350 346 347 349 353 354 353 355
342 340 335 333 333 332 332 334 335 331 331 331 332 331 327 326 328 334 339 341 342 342 339 338 334 333 332 335 339 341 342 344 343 347 351 351 348 348 349 355 356 357 355
342 340 339 338 338 336 334 332 336 329 331 330 328 327 328 329 329 332 336 340 341 341 337 334 332 330 328 329 332 334 338 341 342 344 349 350 347 347 346 352 355 352 349
349 353 353 348 345 343 341 338 334 338 337 334 332 328 326 327 328 329 331 332 333 334 330 330 332 331 328 328 329 331 333 336 339 339 340 342 340 339 340 344 346 344 342
359 357 356 351 351 350 349 346 341 341 333 332 335 332 328 330 326 324 326 328 324 324 321 324 326 329 329 327 327 328 330 332 334 335 335 335 333 332 332 334 336 336 335
357 351 348 348 343 346 349 348 345 341 339 334 331 333 332 327 326 326 326 319 320 321 322 321 322 323 326 326 326 326 326 327 328 329 331 328 326 325 325 327 330 331 332
341 340 336 334 334 336 339 340 339 340 339 337 334 331 329 328 323 319 318 318 317 316 317 318 319 321 321 323 322 322 323 324 325 321 320 323 321 320 320 321 323 325 326
332 336 336 330 328 322 323 326 329 331 330 327 326 326 325 324 322 320 319 319 318 317 317 317 316 316 317 316 317 317 318 320 321 319 315 316 315 315 316 318 319 321 323
328 327 327 323 317 319 321 321 322 322 323 323 323 322 321 318 316 316 316 315 314 313 313 312 313 313 311 309 307 306 309 314 318 317 312 310 311 313 314 316 317 318 319
338 335 330 328 327 326 326 326 324 323 322 322 321 321 320 318 314 312 312 312 311 312 312 311 309 309 310 308 300 297 298 301 306 313 310 304 306 310 313 315 316 317 317
336 334 334 333 331 331 331 329 327 325 322 321 320 318 317 317 317 316 317 317 313 313 311 308 306 306 304 305 304 297 296 292 294 295 297 300 302 307 312 317 319 318 317
333 331 330 329 329 328 327 327 327 326 325 323 320 319 318 317 314 315 315 315 314 313 311 311 308 307 304 301 298 298 294 275 273 277 283 290 292 301 308 314 318 319 319
334 332 331 330 328 327 325 324 323 323 321 320 319 318 316 315 314 313 311 311 309 308 308 308 305 299 298 299 302 301 301 288 270 246 266 276 288 300 307 313 317 319 322